星链-31275 (STARLINK-31275 )

导读 | 豆包AI

STARLINK-31275是美国SpaceX星链卫星互联网项目的卫星,于2024年3月10日发射。作为星链低轨星座的组成部分,它为全球提供高速互联网服务,覆盖偏远地区与传统网络难以抵达区域,助力海上、航空移动场景联网,进一步扩充星链星座规模,提升星座网络容量与覆盖稳定性。

基本信息
目录编号:
59197
目录名称:
STARLINK-31275
国际标识:
2024-045V
轨道中心:
EARTH
卫星名称:
星链-31275
卫星全名:
星链-31275 (STARLINK-31275 )
卫星状态:
在轨 (已飞行781 天)
发射日期:
2024-03-10 UTC
国别 :
美国 (US)
星等 :
--
轨道信息
数据来源 国际轨道数据
星历时间: 2026-04-30T12:21:30+0800
18小时前
查看轨道信息
半长轴: 6861.199km
偏心率: 0.0001476
轨道倾角: 43.001°
近地点辐角 277.650°
升交点赤经 161.979°
平近点角 82.418°
近地点: 482.049km
远地点: 484.075km
周期: 94.267分钟
每日圈数: 15.275757
详细信息
固有亮度:
5
最大亮度:
0.3
卫星平台:
Starlink v2.0 mini
覆盖范围:
全球
运营商:
太空探索技术公司
运营商所在国:
美国
制造商(研发单位):
太空探索技术公司
制造商所在国:
美国
使用方式:
暂无
卫星简介
星链(Starlink)计划是由太空探索技术公司(SpaceX)提出的一个巨型低轨卫星互联网星座项目,计划在2019年至2024年间在太空搭建由约1.2万颗卫星组成的“星链”网络,其中1584颗将部署在地球上空550千米处的近地轨道,并从2020年开始工作。该卫星仍在工作。
2D轨道图
3D轨道图
轨道高度分析图
轨道倾角分析图
轨道综合分析图
查看轨道综合分析图